User: anonymous
Location: Columbia
(38.9520°N, 92.3340°W)
Time: 02:02:26
(UTC-05:00)
Language:

FENGYUN 3A - Orbit

View from above orbital plane
View from above orbital plane
View from above satellite
View from above satellite

Ground track
Ground track

The orbit data is extracted from the following two-line orbital elements,

1 32958U 08026A   14210.70364478  .00000016  00000-0  27404-4 0  2148
2 32958 098.5514 268.1022 0010438 091.6480 268.5896 14.19460365319877
Epoch (UTC): 29 July 2014 16:53:14
Eccentricity: 0.0010438
inclination: 98.5514°
perigee height: 819 km
apogee height: 835 km
right ascension of ascending node: 268.1022°
argument of perigee: 91.6480°
revolutions per day: 14.19460365
mean anomaly at epoch: 268.5896°
orbit number at epoch: 31987

The dashed part of the orbit path shows where the satellite is in the earth's shadow,  

DLR